When you browse on this site, cookies collect data to enhance your experience and personalize the content and advertising you see.
Visit our Privacy Policy to learn more. By continuing to use the site, you agree to this use of cookies and data.
  • In Deutschland
  • Länderverzeichnis
  • Für 7 Tage
  • Wassertemperatur
  • Satellitenkarten
  • Wetterkarte
  • Widgets
  • user-avatar
    Anmelden

    Stündliche Wetter Cordoba

    Heute, 23 Januar, Mittwoch

    Zeit Temperatur Niederschläge Wind Luftdruck Luftfeuchtigkeit
    00:00 +27°C° 1.3 mm 1 m/S 721 mmHg 85%
    01:00 +24°C° 1.3 mm 0 m/S 721 mmHg 87%
    02:00 +24°C° 1.3 mm 0 m/S 721 mmHg 89%
    03:00 +24°C° 0.6 mm 0 m/S 721 mmHg 90%
    04:00 +24°C° 0.6 mm 0 m/S 721 mmHg 90%
    05:00 +25°C° 0.6 mm 1 m/S 721 mmHg 91%
    06:00 +27°C° 0 mm 1 m/S 721 mmHg 85%
    07:00 +28°C° 0 mm 1 m/S 721 mmHg 78%
    08:00 +30°C° 0 mm 1 m/S 722 mmHg 72%
    09:00 +32°C° 0.8 mm 2 m/S 722 mmHg 65%
    10:00 +35°C° 0.8 mm 3 m/S 722 mmHg 58%
    11:00 +37°C° 0.8 mm 5 m/S 722 mmHg 51%
    12:00 +38°C° 0.2 mm 4 m/S 722 mmHg 47%
    13:00 +40°C° 0.2 mm 4 m/S 722 mmHg 42%
    14:00 +41°C° 0.2 mm 4 m/S 722 mmHg 37%
    15:00 +40°C° 0 mm 4 m/S 721 mmHg 40%
    16:00 +38°C° 0 mm 3 m/S 720 mmHg 43%
    17:00 +36°C° 0 mm 3 m/S 720 mmHg 46%
    18:00 +34°C° 0.2 mm 3 m/S 720 mmHg 56%
    19:00 +33°C° 0.2 mm 4 m/S 720 mmHg 66%
    20:00 +30°C° 0.2 mm 4 m/S 720 mmHg 75%
    21:00 +29°C° 3.6 mm 3 m/S 721 mmHg 81%
    22:00 +28°C° 3.6 mm 2 m/S 721 mmHg 88%
    23:00 +26°C° 3.6 mm 1 m/S 722 mmHg 94%

    Morgen, 24 Januar, Donnerstag

    Zeit Temperatur Niederschläge Wind Luftdruck Luftfeuchtigkeit
    00:00 +26°C° 0.6 mm 1 m/S 722 mmHg 94%
    01:00 +26°C° 0.6 mm 1 m/S 722 mmHg 94%
    02:00 +26°C° 0.6 mm 1 m/S 722 mmHg 93%
    03:00 +26°C° 1.3 mm 2 m/S 722 mmHg 95%
    04:00 +25°C° 1.3 mm 3 m/S 722 mmHg 96%
    05:00 +25°C° 1.3 mm 3 m/S 722 mmHg 97%
    06:00 +25°C° 0.5 mm 3 m/S 722 mmHg 96%
    07:00 +25°C° 0.5 mm 2 m/S 722 mmHg 96%
    08:00 +25°C° 0.5 mm 2 m/S 723 mmHg 95%
    09:00 +26°C° 0 mm 2 m/S 723 mmHg 87%
    10:00 +28°C° 0 mm 2 m/S 722 mmHg 79%
    11:00 +30°C° 0 mm 2 m/S 722 mmHg 71%
    12:00 +33°C° 0 mm 3 m/S 722 mmHg 64%
    13:00 +35°C° 0 mm 4 m/S 721 mmHg 57%
    14:00 +37°C° 0 mm 5 m/S 721 mmHg 50%
    15:00 +37°C° 0 mm 5 m/S 720 mmHg 50%
    16:00 +37°C° 0 mm 5 m/S 720 mmHg 49%
    17:00 +37°C° 0 mm 5 m/S 719 mmHg 49%
    18:00 +35°C° 0 mm 4 m/S 719 mmHg 58%
    19:00 +33°C° 0 mm 4 m/S 720 mmHg 68%
    20:00 +29°C° 0 mm 3 m/S 720 mmHg 77%
    21:00 +29°C° 0.6 mm 2 m/S 720 mmHg 81%
    22:00 +28°C° 0.6 mm 2 m/S 720 mmHg 84%
    23:00 +27°C° 0.6 mm 1 m/S 721 mmHg 88%

    übermorgen, 25 Januar, Freitag

    Zeit Temperatur Niederschläge Wind Luftdruck Luftfeuchtigkeit
    00:00 +27°C° 0 mm 1 m/S 720 mmHg 89%
    01:00 +27°C° 0 mm 1 m/S 720 mmHg 90%
    02:00 +27°C° 0 mm 1 m/S 719 mmHg 91%
    03:00 +27°C° 0 mm 1 m/S 719 mmHg 91%
    04:00 +26°C° 0 mm 1 m/S 719 mmHg 91%
    05:00 +26°C° 0 mm 1 m/S 719 mmHg 91%
    06:00 +28°C° 0 mm 2 m/S 719 mmHg 84%
    07:00 +29°C° 0 mm 3 m/S 720 mmHg 78%
    08:00 +30°C° 0 mm 4 m/S 720 mmHg 72%
    09:00 +33°C° 0 mm 4 m/S 720 mmHg 63%
    10:00 +35°C° 0 mm 5 m/S 720 mmHg 55%
    11:00 +38°C° 0 mm 6 m/S 720 mmHg 47%
    12:00 +40°C° 0 mm 6 m/S 720 mmHg 42%
    13:00 +42°C° 0 mm 6 m/S 719 mmHg 36%
    14:00 +44°C° 0 mm 6 m/S 719 mmHg 31%
    15:00 +44°C° 0 mm 6 m/S 718 mmHg 30%
    16:00 +45°C° 0 mm 5 m/S 718 mmHg 29%
    17:00 +45°C° 0 mm 5 m/S 718 mmHg 28%
    18:00 +41°C° 0 mm 4 m/S 718 mmHg 34%
    19:00 +38°C° 0 mm 3 m/S 718 mmHg 39%
    20:00 +35°C° 0 mm 3 m/S 718 mmHg 45%
    21:00 +34°C° 0 mm 2 m/S 718 mmHg 48%
    22:00 +32°C° 0 mm 2 m/S 719 mmHg 51%
    23:00 +31°C° 0 mm 1 m/S 719 mmHg 54%

    26 Januar, Samstag

    Zeit Temperatur Niederschläge Wind Luftdruck Luftfeuchtigkeit
    00:00 +31°C° 0 mm 1 m/S 719 mmHg 54%
    01:00 +30°C° 0 mm 1 m/S 719 mmHg 55%
    02:00 +30°C° 0 mm 1 m/S 719 mmHg 55%
    03:00 +28°C° 7.5 mm 3 m/S 719 mmHg 67%
    04:00 +27°C° 7.5 mm 4 m/S 720 mmHg 79%
    05:00 +25°C° 7.5 mm 5 m/S 720 mmHg 90%
    06:00 +25°C° 4.1 mm 4 m/S 721 mmHg 91%
    07:00 +25°C° 4.1 mm 4 m/S 721 mmHg 92%
    08:00 +25°C° 4.1 mm 3 m/S 722 mmHg 93%
    09:00 +25°C° 5 mm 3 m/S 722 mmHg 93%
    10:00 +24°C° 5 mm 3 m/S 723 mmHg 93%
    11:00 +24°C° 5 mm 2 m/S 723 mmHg 93%
    12:00 +24°C° 2.6 mm 2 m/S 723 mmHg 90%
    13:00 +25°C° 2.6 mm 2 m/S 723 mmHg 88%
    14:00 +25°C° 2.6 mm 1 m/S 722 mmHg 85%
    15:00 +26°C° 0.1 mm 2 m/S 722 mmHg 83%
    16:00 +26°C° 0.1 mm 2 m/S 722 mmHg 80%
    17:00 +27°C° 0.1 mm 2 m/S 722 mmHg 78%
    18:00 +26°C° 0 mm 2 m/S 722 mmHg 81%
    19:00 +25°C° 0 mm 1 m/S 722 mmHg 85%
    20:00 +24°C° 0 mm 1 m/S 722 mmHg 89%
    21:00 +24°C° 0 mm 1 m/S 723 mmHg 89%
    22:00 +24°C° 0 mm 1 m/S 723 mmHg 88%
    23:00 +24°C° 0 mm 2 m/S 724 mmHg 88%

    27 Januar, Sonntag

    Zeit Temperatur Niederschläge Wind Luftdruck Luftfeuchtigkeit
    00:00 +24°C° 0 mm 1 m/S 723 mmHg 88%
    01:00 +24°C° 0 mm 1 m/S 723 mmHg 88%
    02:00 +24°C° 0 mm 1 m/S 723 mmHg 87%
    03:00 +24°C° 0 mm 1 m/S 723 mmHg 87%
    04:00 +23°C° 0 mm 1 m/S 722 mmHg 88%
    05:00 +23°C° 0 mm 1 m/S 722 mmHg 88%
    06:00 +25°C° 0 mm 1 m/S 722 mmHg 83%
    07:00 +26°C° 0 mm 1 m/S 723 mmHg 78%
    08:00 +27°C° 0 mm 1 m/S 723 mmHg 73%
    09:00 +29°C° 0 mm 1 m/S 723 mmHg 67%
    10:00 +31°C° 0 mm 2 m/S 723 mmHg 61%
    11:00 +34°C° 0 mm 2 m/S 723 mmHg 55%
    12:00 +34°C° 0 mm 3 m/S 722 mmHg 54%
    13:00 +35°C° 0 mm 3 m/S 722 mmHg 52%
    14:00 +36°C° 0 mm 3 m/S 721 mmHg 51%
    15:00 +35°C° 0.4 mm 4 m/S 721 mmHg 55%
    16:00 +35°C° 0.4 mm 4 m/S 720 mmHg 60%
    17:00 +34°C° 0.4 mm 4 m/S 720 mmHg 64%
    18:00 +33°C° 0 mm 3 m/S 720 mmHg 69%
    19:00 +30°C° 0 mm 2 m/S 720 mmHg 74%
    20:00 +29°C° 0 mm 1 m/S 721 mmHg 79%
    21:00 +28°C° 0.1 mm 1 m/S 721 mmHg 82%
    22:00 +28°C° 0.1 mm 1 m/S 721 mmHg 84%
    23:00 +27°C° 0.1 mm 1 m/S 721 mmHg 87%

    28 Januar, Montag

    Zeit Temperatur Niederschläge Wind Luftdruck Luftfeuchtigkeit
    00:00 +27°C° 0.2 mm 1 m/S 721 mmHg 88%
    01:00 +27°C° 0.2 mm 1 m/S 721 mmHg 89%
    02:00 +24°C° 0.2 mm 0 m/S 720 mmHg 91%
    03:00 +26°C° 0 mm 1 m/S 720 mmHg 90%
    04:00 +26°C° 0 mm 1 m/S 720 mmHg 89%
    05:00 +26°C° 0 mm 1 m/S 720 mmHg 89%
    06:00 +27°C° 0 mm 2 m/S 721 mmHg 83%
    07:00 +29°C° 0 mm 2 m/S 721 mmHg 77%
    08:00 +30°C° 0 mm 3 m/S 722 mmHg 71%
    09:00 +33°C° 0.2 mm 4 m/S 722 mmHg 65%
    10:00 +34°C° 0.2 mm 5 m/S 722 mmHg 59%
    11:00 +36°C° 0.2 mm 6 m/S 722 mmHg 53%
    12:00 +36°C° 0.1 mm 6 m/S 721 mmHg 51%
    13:00 +38°C° 0.1 mm 6 m/S 720 mmHg 49%
    14:00 +39°C° 0.1 mm 6 m/S 720 mmHg 47%
    15:00 +37°C° 0 mm 5 m/S 719 mmHg 47%
    16:00 +37°C° 0 mm 5 m/S 719 mmHg 47%
    17:00 +37°C° 0 mm 5 m/S 718 mmHg 47%
    18:00 +35°C° 0 mm 4 m/S 718 mmHg 49%
    19:00 +34°C° 0 mm 4 m/S 719 mmHg 51%
    20:00 +31°C° 0 mm 3 m/S 719 mmHg 53%
    21:00 +30°C° 0 mm 3 m/S 719 mmHg 54%
    22:00 +30°C° 0 mm 3 m/S 719 mmHg 55%
    23:00 +29°C° 0 mm 3 m/S 719 mmHg 56%
    Mehr zeigen